Flag for Germany Weather past 2 weeks in Dachau, Bavaria, Germany

Now
68 °F

Sunny.


Feels Like: 68 °F
Forecast: 48 / 70 °F
Wind: 6 mph from Northeast

Location: Oberpfaffenhofen

Current Time: Sep 17, 2014 at 6:58:13 PM

Latest Report: Sep 17, 2014 at 6:20 PM


Visibility: 10 mi

Pressure: 29.92 "Hg

Humidity: 73%

Dew point: 59 °F

Location of DachauLocation

Historic Weather in Dachau — Graph

°F

Dachau temperature yesterday

Maximum temperature yesterday: 66 °F (at 3:20 PM)
Minimum temperature yesterday: 52 °F (at 6:50 AM)
Average temperature yesterday: 59 °F

Past Weeks' High & Low Weather Summary

 TemperatureHumidityPressure
High77 °F (Sep 8, 3:20 PM)100% (Sep 5, 7:50 AM)30.15 "Hg (Sep 5, 7:50 AM)
Low48 °F (Sep 12, 6:50 AM)44% (Sep 8, 5:20 PM)29.92 "Hg (Sep 17, 3:50 PM)
Average60 °F81%30.03 "Hg
* Reported Sep 2 5:20 PM — Sep 17 5:50 PM, Dachau, Weather by CustomWeather, © 2014

Note: Actual official high and low records may vary slightly from our data, if they occured in-between our weather recording intervals... More about our weather records

Advertising

Dachau weather history for previous 24 hours

 ConditionsComfort  
Time TempWeatherWind HumidityBarometerVisibility
5:50 PM
Sep 17
70 °FSunny.6 mph64%29.92 "Hg10 mi
5:20 PM70 °FPassing clouds.7 mph69%29.92 "HgN/A
4:50 PM70 °FPassing clouds.8 mph69%29.92 "HgN/A
4:20 PM68 °FSunny.9 mph73%29.92 "Hg10 mi
3:50 PM68 °FSunny.9 mph73%29.92 "Hg10 mi
3:20 PM66 °FSunny.8 mph78%29.95 "Hg10 mi
2:50 PM66 °FPassing clouds.8 mph78%29.95 "HgN/A
2:20 PM64 °FSunny.8 mph78%29.95 "Hg10 mi
1:50 PM64 °FPassing clouds.8 mph78%29.95 "HgN/A
1:20 PM63 °FPassing clouds.3 mph88%29.95 "HgN/A
12:50 PM63 °FScattered clouds.7 mph88%29.95 "HgN/A
12:20 PM59 °FScattered clouds.5 mph100%29.95 "HgN/A
11:50 AM57 °FPartly sunny.5 mph94%29.98 "HgN/A
11:20 AM55 °FFog.2 mph100%29.98 "Hg3 mi
10:50 AM54 °FFog.2 mph100%29.98 "Hg2 mi
10:20 AM54 °FFog.1 mph94%29.98 "Hg1 mi
9:50 AM52 °FFog.1 mph100%29.98 "Hg0 mi
9:20 AM52 °FFog.2 mph94%29.98 "Hg0 mi
8:50 AM50 °FFog.1 mph100%29.98 "Hg0 mi
8:20 AM50 °FFog.3 mph94%29.98 "Hg0 mi
7:50 AM50 °FFog.2 mph94%29.98 "Hg0 mi
7:20 AM50 °FFog.1 mph94%29.98 "Hg0 mi
6:50 AM50 °FFog.No wind100%29.98 "Hg0 mi
7:50 PM
Sep 16
59 °FSunny.7 mph82%30.01 "Hg10 mi
7:20 PM59 °FSunny.7 mph88%30.01 "Hg10 mi
6:50 PM63 °FSunny.7 mph77%30.01 "Hg10 mi
6:20 PM64 °FSunny.8 mph73%30.01 "Hg10 mi
Weather by CustomWeather, © 2014

See weather overviewHow to use our weather pages